TimeMDT,TemperatureF,Dew PointF,Humidity,Sea Level PressureIn,VisibilityMPH,Wind Direction,Wind SpeedMPH,Gust SpeedMPH,PrecipitationIn,Events,Conditions,WindDirDegrees,DateUTC
12:56 AM,21.9,17.1,82,30.51,10.0,East,3.5,-,N/A,,Scattered Clouds,90,2012-10-06 06:56:00
1:56 AM,23.0,17.1,78,30.50,10.0,Calm,Calm,-,N/A,,Clear,0,2012-10-06 07:56:00
2:56 AM,23.0,17.1,78,30.49,10.0,NNW,3.5,-,N/A,,Clear,330,2012-10-06 08:56:00
3:56 AM,21.0,16.0,81,30.50,10.0,Calm,Calm,-,N/A,,Scattered Clouds,0,2012-10-06 09:56:00
4:56 AM,21.0,16.0,81,30.49,10.0,SW,4.6,-,N/A,,Clear,230,2012-10-06 10:56:00
5:56 AM,19.9,14.0,78,30.49,10.0,South,5.8,-,N/A,,Clear,180,2012-10-06 11:56:00
6:56 AM,15.1,12.9,91,30.53,10.0,Calm,Calm,-,N/A,,Clear,0,2012-10-06 12:56:00
7:56 AM,19.0,14.0,81,30.51,10.0,Calm,Calm,-,N/A,,Clear,0,2012-10-06 13:56:00
8:56 AM,25.0,18.0,75,30.50,10.0,Calm,Calm,-,N/A,,Clear,0,2012-10-06 14:56:00
9:56 AM,28.9,19.0,67,30.49,10.0,Calm,Calm,-,N/A,,Clear,0,2012-10-06 15:56:00
10:56 AM,35.1,17.1,48,30.46,10.0,Calm,Calm,-,N/A,,Clear,0,2012-10-06 16:56:00
11:56 AM,37.9,17.1,43,30.45,10.0,Calm,Calm,-,N/A,,Clear,0,2012-10-06 17:56:00
12:56 PM,41.0,12.9,32,30.44,10.0,Variable,4.6,-,N/A,,Clear,0,2012-10-06 18:56:00
1:56 PM,44.1,9.0,24,30.40,10.0,Calm,Calm,-,N/A,,Clear,0,2012-10-06 19:56:00
2:56 PM,45.0,8.1,22,30.37,10.0,Variable,3.5,-,N/A,,Overcast,0,2012-10-06 20:56:00
3:56 PM,46.9,12.0,24,30.36,10.0,Calm,Calm,-,N/A,,Partly Cloudy,0,2012-10-06 21:56:00
4:56 PM,48.0,10.0,22,30.34,10.0,Calm,Calm,-,N/A,,Clear,0,2012-10-06 22:56:00
5:56 PM,46.0,10.9,24,30.35,10.0,Calm,Calm,-,N/A,,Partly Cloudy,0,2012-10-06 23:56:00
6:56 PM,42.1,12.0,29,30.37,10.0,ESE,3.5,-,N/A,,Mostly Cloudy,120,2012-10-07 00:56:00
7:56 PM,39.0,16.0,39,30.37,10.0,SSE,6.9,-,N/A,,Overcast,150,2012-10-07 01:56:00
8:56 PM,39.9,19.0,43,30.35,10.0,South,8.1,-,N/A,,Overcast,170,2012-10-07 02:56:00
9:56 PM,39.9,21.9,49,30.33,10.0,SSE,6.9,-,N/A,,Overcast,160,2012-10-07 03:56:00
10:56 PM,37.0,23.0,57,30.32,10.0,East,3.5,-,N/A,,Overcast,80,2012-10-07 04:56:00
11:56 PM,37.9,21.9,53,30.30,10.0,SSW,5.8,-,N/A,,Overcast,200,2012-10-07 05:56:00